• In Moldova, Republic
  • List of Countries
  • For 7 days
  • Water Temperature
  • Satellite Maps
  • Weather Map
  • Weather Widgets
  • user-avatar
    Login

    Hourly Weather Lankaran

    Today, 16 August, Wednesday

    Time Temperature Precipitation Wind Pressure Humidity
    00:00 +16°C° 0 mm 2 mps 633 mmHg 64%
    01:00 +15°C° 0 mm 2 mps 633 mmHg 67%
    02:00 +15°C° 0 mm 2 mps 633 mmHg 70%
    03:00 +15°C° 0 mm 2 mps 633 mmHg 76%
    04:00 +15°C° 0 mm 2 mps 633 mmHg 77%
    05:00 +15°C° 0 mm 2 mps 634 mmHg 79%
    06:00 +16°C° 0 mm 2 mps 634 mmHg 81%
    07:00 +17°C° 0 mm 2 mps 634 mmHg 76%
    08:00 +18°C° 0 mm 2 mps 634 mmHg 71%
    09:00 +20°C° 0 mm 3 mps 635 mmHg 63%
    10:00 +21°C° 0 mm 3 mps 635 mmHg 58%
    11:00 +24°C° 0 mm 3 mps 635 mmHg 53%
    12:00 +25°C° 0 mm 3 mps 635 mmHg 48%
    13:00 +25°C° 0 mm 3 mps 635 mmHg 49%
    14:00 +25°C° 0 mm 3 mps 635 mmHg 49%
    15:00 +25°C° 0 mm 3 mps 635 mmHg 50%
    16:00 +24°C° 0 mm 3 mps 635 mmHg 56%
    17:00 +22°C° 0 mm 3 mps 634 mmHg 62%
    18:00 +21°C° 0 mm 2 mps 634 mmHg 68%
    19:00 +20°C° 0 mm 2 mps 634 mmHg 73%
    20:00 +19°C° 0 mm 2 mps 634 mmHg 77%
    21:00 +19°C° 0 mm 1 mps 634 mmHg 82%
    22:00 +19°C° 0 mm 1 mps 634 mmHg 81%
    23:00 +19°C° 0 mm 1 mps 634 mmHg 79%

    Tomorrow, 17 August, Thursday

    Time Temperature Precipitation Wind Pressure Humidity
    00:00 +19°C° 0 mm 1 mps 634 mmHg 78%
    01:00 +18°C° 0 mm 1 mps 634 mmHg 78%
    02:00 +18°C° 0 mm 1 mps 634 mmHg 78%
    03:00 +18°C° 0 mm 1 mps 634 mmHg 78%
    04:00 +18°C° 0 mm 1 mps 634 mmHg 75%
    05:00 +18°C° 0 mm 1 mps 634 mmHg 72%
    06:00 +19°C° 0 mm 1 mps 634 mmHg 70%
    07:00 +21°C° 0 mm 1 mps 635 mmHg 58%
    08:00 +23°C° 0 mm 2 mps 635 mmHg 47%
    09:00 +25°C° 0 mm 2 mps 636 mmHg 36%
    10:00 +26°C° 0 mm 3 mps 636 mmHg 33%
    11:00 +27°C° 0 mm 3 mps 636 mmHg 31%
    12:00 +29°C° 0 mm 3 mps 636 mmHg 28%
    13:00 +28°C° 0.2 mm 4 mps 636 mmHg 29%
    14:00 +28°C° 0.2 mm 4 mps 635 mmHg 29%
    15:00 +28°C° 0.2 mm 4 mps 635 mmHg 30%
    16:00 +26°C° 0.2 mm 3 mps 635 mmHg 38%
    17:00 +25°C° 0.2 mm 3 mps 634 mmHg 45%
    18:00 +22°C° 0.2 mm 3 mps 634 mmHg 52%
    19:00 +21°C° 0 mm 2 mps 634 mmHg 58%
    20:00 +20°C° 0 mm 2 mps 634 mmHg 65%
    21:00 +20°C° 0 mm 1 mps 634 mmHg 71%
    22:00 +19°C° 0 mm 1 mps 634 mmHg 72%
    23:00 +19°C° 0 mm 1 mps 633 mmHg 74%

    Day after tomorrow, 18 August, Friday

    Time Temperature Precipitation Wind Pressure Humidity
    00:00 +18°C° 0 mm 1 mps 633 mmHg 75%
    01:00 +17°C° 0 mm 2 mps 633 mmHg 75%
    02:00 +17°C° 0 mm 2 mps 633 mmHg 75%
    03:00 +16°C° 0 mm 2 mps 633 mmHg 75%
    04:00 +17°C° 0 mm 2 mps 633 mmHg 73%
    05:00 +17°C° 0 mm 2 mps 633 mmHg 71%
    06:00 +18°C° 0 mm 2 mps 634 mmHg 68%
    07:00 +20°C° 0 mm 3 mps 634 mmHg 59%
    08:00 +22°C° 0 mm 3 mps 635 mmHg 49%
    09:00 +25°C° 0 mm 3 mps 636 mmHg 39%
    10:00 +26°C° 0 mm 3 mps 636 mmHg 34%
    11:00 +28°C° 0 mm 4 mps 636 mmHg 30%
    12:00 +29°C° 0 mm 4 mps 636 mmHg 25%
    13:00 +29°C° 0 mm 4 mps 636 mmHg 25%
    14:00 +29°C° 0 mm 4 mps 635 mmHg 25%
    15:00 +29°C° 0 mm 4 mps 635 mmHg 25%
    16:00 +27°C° 0 mm 4 mps 635 mmHg 31%
    17:00 +25°C° 0 mm 4 mps 635 mmHg 37%
    18:00 +24°C° 0 mm 3 mps 635 mmHg 44%
    19:00 +21°C° 0 mm 3 mps 635 mmHg 50%
    20:00 +19°C° 0 mm 2 mps 635 mmHg 56%
    21:00 +18°C° 0 mm 2 mps 635 mmHg 62%
    22:00 +17°C° 0 mm 2 mps 635 mmHg 56%
    23:00 +17°C° 0 mm 2 mps 635 mmHg 51%

    19 August, Saturday

    Time Temperature Precipitation Wind Pressure Humidity
    00:00 +17°C° 0 mm 2 mps 635 mmHg 46%
    01:00 +17°C° 0 mm 2 mps 635 mmHg 44%
    02:00 +17°C° 0 mm 2 mps 635 mmHg 42%
    03:00 +17°C° 0 mm 2 mps 635 mmHg 40%
    04:00 +17°C° 0 mm 2 mps 635 mmHg 38%
    05:00 +18°C° 0 mm 2 mps 636 mmHg 37%
    06:00 +18°C° 0 mm 2 mps 636 mmHg 35%
    07:00 +20°C° 0 mm 2 mps 637 mmHg 31%
    08:00 +24°C° 0 mm 3 mps 638 mmHg 27%
    09:00 +26°C° 0 mm 3 mps 638 mmHg 22%
    10:00 +27°C° 0 mm 3 mps 638 mmHg 21%
    11:00 +28°C° 0 mm 4 mps 639 mmHg 20%
    12:00 +29°C° 0 mm 4 mps 639 mmHg 18%
    13:00 +29°C° 0 mm 4 mps 639 mmHg 19%
    14:00 +29°C° 0 mm 4 mps 638 mmHg 19%
    15:00 +29°C° 0 mm 4 mps 638 mmHg 20%
    16:00 +27°C° 0 mm 4 mps 638 mmHg 24%
    17:00 +26°C° 0 mm 3 mps 637 mmHg 27%
    18:00 +24°C° 0 mm 3 mps 637 mmHg 31%
    19:00 +21°C° 0 mm 3 mps 637 mmHg 35%
    20:00 +19°C° 0 mm 2 mps 637 mmHg 40%
    21:00 +18°C° 0 mm 2 mps 637 mmHg 45%
    22:00 +17°C° 0 mm 2 mps 637 mmHg 40%
    23:00 +17°C° 0 mm 2 mps 637 mmHg 35%

    20 August, Sunday

    Time Temperature Precipitation Wind Pressure Humidity
    00:00 +17°C° 0 mm 2 mps 637 mmHg 30%
    01:00 +18°C° 0 mm 1 mps 636 mmHg 29%
    02:00 +16°C° 0 mm 1 mps 636 mmHg 27%
    03:00 +16°C° 0 mm 1 mps 636 mmHg 25%
    04:00 +18°C° 0 mm 1 mps 636 mmHg 25%
    05:00 +18°C° 0 mm 1 mps 636 mmHg 24%
    06:00 +19°C° 0 mm 1 mps 637 mmHg 23%
    07:00 +20°C° 0 mm 2 mps 637 mmHg 22%
    08:00 +24°C° 0 mm 2 mps 638 mmHg 21%
    09:00 +26°C° 0 mm 2 mps 639 mmHg 20%
    10:00 +27°C° 0 mm 3 mps 639 mmHg 19%
    11:00 +28°C° 0 mm 3 mps 639 mmHg 18%
    12:00 +29°C° 0 mm 4 mps 638 mmHg 16%
    13:00 +29°C° 0 mm 4 mps 638 mmHg 17%
    14:00 +29°C° 0 mm 4 mps 638 mmHg 17%
    15:00 +29°C° 0 mm 4 mps 637 mmHg 18%
    16:00 +28°C° 0 mm 3 mps 637 mmHg 21%
    17:00 +26°C° 0 mm 3 mps 637 mmHg 24%
    18:00 +24°C° 0 mm 3 mps 636 mmHg 27%
    19:00 +23°C° 0 mm 2 mps 636 mmHg 29%
    20:00 +20°C° 0 mm 2 mps 636 mmHg 31%
    21:00 +18°C° 0 mm 2 mps 636 mmHg 34%
    22:00 +18°C° 0 mm 2 mps 636 mmHg 33%
    23:00 +19°C° 0 mm 1 mps 636 mmHg 33%

    21 August, Monday

    Time Temperature Precipitation Wind Pressure Humidity
    00:00 +19°C° 0 mm 1 mps 635 mmHg 32%
    01:00 +18°C° 0 mm 1 mps 635 mmHg 33%
    02:00 +18°C° 0 mm 1 mps 635 mmHg 33%
    03:00 +18°C° 0 mm 1 mps 635 mmHg 33%
    04:00 +18°C° 0 mm 1 mps 635 mmHg 31%
    05:00 +18°C° 0 mm 1 mps 636 mmHg 30%
    06:00 +19°C° 0 mm 1 mps 636 mmHg 29%
    07:00 +20°C° 0 mm 2 mps 637 mmHg 26%
    08:00 +24°C° 0 mm 2 mps 637 mmHg 24%
    09:00 +26°C° 0 mm 2 mps 638 mmHg 22%
    10:00 +27°C° 0 mm 3 mps 638 mmHg 22%
    11:00 +28°C° 0 mm 3 mps 638 mmHg 21%
    12:00 +29°C° 0 mm 3 mps 638 mmHg 21%
    13:00 +29°C° 0 mm 4 mps 637 mmHg 21%
    14:00 +29°C° 0 mm 4 mps 637 mmHg 22%
    15:00 +29°C° 0 mm 4 mps 637 mmHg 22%
    16:00 +28°C° 0 mm 3 mps 636 mmHg 26%
    17:00 +26°C° 0 mm 3 mps 636 mmHg 30%
    18:00 +24°C° 0 mm 2 mps 636 mmHg 34%
    19:00 +21°C° 0 mm 2 mps 636 mmHg 37%
    20:00 +20°C° 0 mm 2 mps 635 mmHg 41%
    21:00 +18°C° 0 mm 2 mps 635 mmHg 45%
    22:00 +18°C° 0 mm 2 mps 635 mmHg 43%
    23:00 +19°C° 0 mm 1 mps 635 mmHg 42%
    Show more